Regional Weather Roundup
Issued by NWS Little Rock, AR

Home | Current Version | Previous Version | Graphics & Text | Print | Product List | Glossary On
Versions: 1 2 3 4 5 6 7 8 9 10 11 12 13 14 15 16 17 18 19 20 21 22 23 24 25 26 27 28 29 30 31 32 33 34 35 36 37 38 39 40 41 42 43 44 45 46 47 48 49 50
017
ASUS44 KLZK 281905
RWRLZK

WEATHER ROUNDUP FOR ARKANSAS
NATIONAL WEATHER SERVICE LITTLE ROCK AR
200 PM CDT FRI APR 28 2017

NOTE: "FAIR" INDICATES FEW OR NO CLOUDS BELOW 12,000 FEET WITH NO
SIGNIFICANT WEATHER AND/OR OBSTRUCTIONS TO VISIBILITY.

ARZ001-003-010-029-282000-
NORTHWEST ARKANSAS

CITY           SKY/WX    TMP DP  RH WIND       PRES   REMARKS
FAYETTEVILLE   CLOUDY    64  62  93 S9        29.69F
FORT SMITH     CLOUDY    69  60  73 E8        29.67F
HARRISON       CLOUDY    64  61  90 S8        29.72R
BENTONVILLE    CLOUDY    66  59  77 SW6       29.70S
ROGERS         LGT RAIN  66  61  84 S10       29.70S
SILOAM SPGS    CLOUDY    66  57  72 SW9       29.70R
HIGHFILL       CLOUDY    66  62  87 S7        29.68F
SPRINGDALE     CLOUDY    66  63  88 S12       29.72R
$$

ARZ004-005-016-282000-
NORTH CENTRAL ARKANSAS

CITY           SKY/WX    TMP DP  RH WIND       PRES   REMARKS
BATESVILLE     CLOUDY    66  63  88 SE3       29.75S
FLIPPIN        CLOUDY   N/A N/A N/A CALM      29.70S
MTN HOME       CLOUDY    61  58  90 SE6       29.72R
$$

ARZ040-041-282000-
WEST CENTRAL ARKANSAS

CITY           SKY/WX    TMP DP  RH WIND       PRES   REMARKS
MENA           CLOUDY    73  73 100 SW6       29.71R
MOUNT IDA      CLOUDY    74  66  76 S9G18     29.68F
$$

ARZ009-017-025-026-028-282000-
NORTHEAST ARKANSAS

CITY           SKY/WX    TMP DP  RH WIND       PRES   REMARKS
JONESBORO      CLOUDY    74  68  81 S14       29.74F
NEWPORT        CLOUDY    74  69  85 S14         N/A
WALNUT RIDGE   CLOUDY    70  63  78 CALM      29.74S
BLYTHEVILLE    PTSUNNY   78  70  76 S20G29    29.76F
NW BLYTHEVILLE CLOUDY    79  70  73 S18G26    29.75F
$$

ARZ022-023-033-042-044-282000-
CENTRAL ARKANSAS

CITY           SKY/WX    TMP DP  RH WIND       PRES   REMARKS
LITTLE ROCK    CLOUDY    79  72  79 S10       29.72R
N LITTLE ROCK    N/A     76  70  82 S8G16     29.73S
JACKSONVILLE   PTSUNNY   76  71  84 S6        29.72S
CONWAY           N/A     70  66  88 CALM      29.71S
SEARCY         CLOUDY    72  68  87 CALM      29.74F
HOT SPRINGS    CLOUDY    75  69  81 S7        29.72R
RUSSELLVILLE   CLOUDY    66  63  90 E5        29.71S
CLINTON        DRZL/FOG  63  63 100 E5        29.73F VSB 3/4
$$

ARZ036-282000-
EAST ARKANSAS

CITY           SKY/WX    TMP DP  RH WIND       PRES   REMARKS
WEST MEMPHIS   CLOUDY    77  73  87 S15       29.76F
$$

ARZ050-053-066-070-073-282000-
SOUTHWEST ARKANSAS

CITY           SKY/WX    TMP DP  RH WIND       PRES   REMARKS
ARKADELPHIA    CLOUDY    80  71  74 S12G17    29.70F
CAMDEN         PTSUNNY   86  68  54 S16       29.69F HX  89
TEXARKANA      CLOUDY    83  72  69 S9        29.67F HX  88
EL DORADO      PTSUNNY   86  71  60 S14       29.72S HX  91
DE QUEEN       CLOUDY    78  71  79 S3        29.66F
$$

ARZ056-057-069-282000-
SOUTHEAST ARKANSAS

CITY           SKY/WX    TMP DP  RH WIND       PRES   REMARKS
PINE BLUFF     CLOUDY    81  71  71 S13       29.72F HX  85
STUTTGART      PTSUNNY   81  64  57 S18       29.74F
MONTICELLO     PTSUNNY   87  71  58 S13G21    29.73F HX  93

$$






USA.gov is the U.S. government's official web portal to all federal, state and local government web resources and services.